Date String (YYYY-MM-DD hh:mm:ss) UTC,Instrument flags,Ambient pressure (hPa),Sample flow (lpm),Bypass flow (lpm),Sample temperature (°C),Ambient temperature (°C),ASC tube jacket temperature (°C),LED temperature (°C),Box temperature (°C),Sample RH (%),Span deviation,Mass concentration (μg/m³),Mass concentration (μg/m³),Mass concentration (μg/m³)
DateTimeUTC,F1_M11,P_M11,Q1_M11,Q2_M11,T1_M11,T2_M11,T3_M11,T4_M11,T5_M11,U1_M11,ZSPAN_M11,X0_M11,X2_M11,X1_M11
2022-08-29 21:00:00,,0830.3,4.99,0.00,29.4,28.2,00.0,38.0,31.3,24.3,0000.0,0022.42,0007.39,0006.05
2022-08-29 21:01:00,,0830.3,5.00,0.00,29.4,28.4,00.0,38.0,31.4,24.4,0000.0,0022.51,0007.37,0006.06
2022-08-29 21:02:00,,0830.3,5.00,0.00,29.5,28.4,00.0,38.1,31.5,24.2,0000.0,0022.05,0007.40,0006.08
2022-08-29 21:03:00,,0830.3,5.00,0.00,29.5,27.3,00.0,38.1,31.4,24.4,0000.0,0020.81,0007.38,0006.09
2022-08-29 21:04:00,,0830.3,5.00,0.00,29.4,26.4,00.0,38.0,31.2,23.0,0000.0,0019.81,0007.41,0006.08
2022-08-29 21:05:00,,0830.2,5.00,0.00,29.4,26.5,00.0,38.0,31.2,22.3,0000.0,0018.53,0007.46,0006.05
2022-08-29 21:06:00,,0830.2,5.01,0.00,29.3,26.8,00.0,38.0,31.1,22.3,0000.0,0017.87,0007.42,0006.05
2022-08-29 21:07:00,,0830.3,4.99,0.00,29.3,27.1,00.0,38.0,31.0,22.1,0000.0,0017.88,0007.36,0006.02
2022-08-29 21:08:00,,0830.2,4.99,0.00,29.3,27.4,00.0,38.0,31.1,21.9,0000.0,0018.03,0007.31,0006.00
2022-08-29 21:09:00,,0830.3,5.02,0.00,29.3,27.7,00.0,38.0,31.2,21.9,0000.0,0017.99,0007.24,0005.97
2022-08-29 21:10:00,,0830.3,5.00,0.00,29.4,28.0,00.0,38.0,31.3,22.6,0000.0,0017.93,0007.17,0005.91
2022-08-29 21:11:00,,0830.2,5.00,0.00,29.4,28.2,00.0,38.0,31.4,22.8,0000.0,0017.99,0007.10,0005.89
2022-08-29 21:12:00,,0830.2,5.00,0.00,29.5,28.4,00.0,38.0,31.4,22.6,0000.0,0017.64,0007.06,0005.88
2022-08-29 21:13:00,,0830.2,4.98,0.00,29.5,28.5,00.0,38.1,31.5,22.5,0000.0,0016.71,0007.03,0005.85
2022-08-29 21:14:00,,0830.3,5.01,0.00,29.5,27.6,00.0,38.1,31.4,22.9,0000.0,0016.13,0007.03,0005.84
2022-08-29 21:15:00,,0830.2,4.99,0.00,29.5,26.5,00.0,38.0,31.3,23.4,0000.0,0016.17,0007.01,0005.84
2022-08-29 21:16:00,,0830.2,5.00,0.00,29.4,26.5,00.0,38.0,31.3,23.4,0000.0,0016.58,0006.97,0005.87
2022-08-29 21:17:00,,0830.2,5.00,0.00,29.4,26.7,00.0,38.0,31.1,23.7,0000.0,0016.46,0006.98,0005.88
2022-08-29 21:18:00,,0830.2,5.01,0.00,29.3,27.1,00.0,38.0,31.0,23.7,0000.0,0017.16,0006.97,0005.90
2022-08-29 21:19:00,,0830.1,5.00,0.00,29.3,27.4,00.0,38.0,31.1,23.9,0000.0,0017.94,0006.99,0005.93
2022-08-29 21:20:00,,0830.1,5.00,0.00,29.3,27.7,00.0,38.0,31.2,23.4,0000.0,0018.20,0007.04,0005.95
2022-08-29 21:21:00,,0830.1,5.01,0.00,29.4,27.9,00.0,38.0,31.2,23.8,0000.0,0018.50,0007.11,0005.99
2022-08-29 21:22:00,,0830.1,4.99,0.00,29.4,28.1,00.0,38.0,31.3,23.7,0000.0,0017.79,0007.17,0006.01
2022-08-29 21:23:00,,0830.1,5.00,0.00,29.5,28.3,00.0,38.0,31.4,23.0,0000.0,0018.14,0007.24,0006.01
2022-08-29 21:24:00,,0830.1,5.00,0.00,29.5,28.5,00.0,38.1,31.5,23.0,0000.0,0018.18,0007.22,0006.01
2022-08-29 21:25:00,,0830.1,4.98,0.00,29.5,27.8,00.0,38.1,31.5,22.5,0000.0,0019.41,0007.18,0006.00
2022-08-29 21:26:00,,0830.1,5.00,0.00,29.5,26.6,00.0,38.1,31.3,22.8,0000.0,0019.71,0007.16,0005.98
2022-08-29 21:27:00,,0830.1,5.01,0.00,29.4,26.4,00.0,38.0,31.3,23.0,0000.0,0020.98,0007.21,0005.95
2022-08-29 21:28:00,,0830.0,5.00,0.00,29.4,26.7,00.0,38.0,31.1,22.3,0000.0,0021.64,0007.20,0005.92
2022-08-29 21:29:00,,0830.1,5.00,0.00,29.3,27.0,00.0,38.0,31.0,22.5,0000.0,0021.06,0007.21,0005.89
2022-08-29 21:30:00,,0830.1,5.00,0.00,29.3,27.3,00.0,38.0,31.1,21.9,0000.0,0020.14,0007.19,0005.86
2022-08-29 21:31:00,,0830.1,5.00,0.00,29.3,27.6,00.0,38.0,31.2,21.8,0000.0,0020.37,0007.22,0005.84
2022-08-29 21:32:00,,0830.1,5.01,0.00,29.4,27.9,00.0,38.0,31.3,22.0,0000.0,0020.32,0007.20,0005.81
2022-08-29 21:33:00,,0830.1,5.00,0.00,29.4,28.1,00.0,38.0,31.3,21.8,0000.0,0020.23,0007.14,0005.79
2022-08-29 21:34:00,,0830.0,4.98,0.00,29.5,28.3,00.0,38.0,31.4,21.8,0000.0,0020.26,0007.09,0005.78
2022-08-29 21:35:00,,0830.0,5.00,0.00,29.5,28.4,00.0,38.1,31.4,22.1,0000.0,0020.22,0007.08,0005.77
2022-08-29 21:36:00,,0829.9,5.01,0.00,29.5,27.4,00.0,38.1,31.4,22.0,0000.0,0018.93,0007.06,0005.77
2022-08-29 21:37:00,,0829.9,5.00,0.00,29.5,26.4,00.0,38.0,31.3,22.6,0000.0,0018.65,0007.04,0005.77
2022-08-29 21:38:00,,0829.9,5.00,0.00,29.4,26.5,00.0,38.0,31.2,23.2,0000.0,0017.66,0007.01,0005.78
2022-08-29 21:39:00,,0829.8,5.00,0.00,29.4,26.8,00.0,38.0,31.1,23.4,0000.0,0017.20,0007.05,0005.79
2022-08-29 21:40:00,,0829.8,4.99,0.00,29.3,27.1,00.0,38.0,31.0,23.4,0000.0,0017.47,0007.01,0005.80
2022-08-29 21:41:00,,0829.8,5.00,0.00,29.3,27.4,00.0,38.0,31.1,23.3,0000.0,0018.41,0007.00,0005.81
2022-08-29 21:42:00,,0829.9,5.00,0.00,29.3,27.7,00.0,38.0,31.2,23.2,0000.0,0019.00,0006.96,0005.82
2022-08-29 21:43:00,,0829.8,5.00,0.00,29.4,28.0,00.0,38.0,31.2,23.0,0000.0,0018.64,0006.93,0005.84
2022-08-29 21:44:00,,0829.9,5.02,0.00,29.4,28.2,00.0,38.0,31.3,22.8,0000.0,0018.58,0006.91,0005.85
2022-08-29 21:45:00,,0829.9,4.98,0.00,29.5,28.4,00.0,38.0,31.4,22.7,0000.0,0019.12,0006.93,0005.86
2022-08-29 21:46:00,,0829.9,5.00,0.00,29.5,28.5,00.0,38.1,31.5,22.8,0000.0,0019.37,0006.97,0005.88
2022-08-29 21:47:00,,0829.9,5.01,0.00,29.5,27.7,00.0,38.1,31.4,23.0,0000.0,0020.61,0007.04,0005.89
2022-08-29 21:48:00,,0829.8,5.00,0.00,29.5,26.5,00.0,38.1,31.3,23.1,0000.0,0020.80,0007.05,0005.91
2022-08-29 21:49:00,,0829.8,5.00,0.00,29.4,26.5,00.0,38.0,31.3,23.1,0000.0,0020.46,0007.02,0005.90
2022-08-29 21:50:00,,0829.8,5.00,0.00,29.4,26.8,00.0,38.0,31.1,22.9,0000.0,0020.53,0006.99,0005.89
2022-08-29 21:51:00,,0829.9,5.01,0.00,29.3,27.1,00.0,38.0,31.1,23.1,0000.0,0020.35,0006.98,0005.89
2022-08-29 21:52:00,,0829.9,4.99,0.00,29.3,27.4,00.0,38.0,31.1,23.3,0000.0,0019.48,0006.99,0005.91
2022-08-29 21:53:00,,0829.8,5.00,0.00,29.4,27.7,00.0,38.0,31.2,23.1,0000.0,0018.26,0007.06,0005.93
2022-08-29 21:54:00,,0829.8,5.00,0.00,29.4,27.9,00.0,38.0,31.3,23.3,0000.0,0018.53,0007.11,0005.95
2022-08-29 21:55:00,,0829.8,5.00,0.00,29.4,28.2,00.0,38.0,31.3,23.0,0000.0,0019.22,0007.16,0005.96
2022-08-29 21:56:00,,0829.8,5.01,0.00,29.5,28.4,00.0,38.0,31.4,23.0,0000.0,0018.78,0007.15,0005.98
2022-08-29 21:57:00,,0829.8,5.00,0.00,29.5,28.3,00.0,38.1,31.5,23.1,0000.0,0019.14,0007.16,0005.99
2022-08-29 21:58:00,,0829.8,4.98,0.00,29.5,27.2,00.0,38.1,31.4,23.3,0000.0,0018.58,0007.17,0006.01
2022-08-29 21:59:00,,0829.8,5.00,0.00,29.5,26.4,00.0,38.0,31.3,23.4,0000.0,0019.09,0007.22,0006.02
